Hourly Data Report for October 30, 2013

All times are specified in Local Standard Time (LST). Add 1 hour to adjust for Daylight Saving Time where and when it is observed.

KITCHENER/WATERLOO
ONTARIO

43°27'39.000" N
80°22'43.000" W
321.60 m
6144239
71368
YKF

Download Data

Hourly Data (October 2013)
Hourly Data Report for October 30, 2013
Temp Definition
°C
Dew Point Temp Definition
°C
Rel Hum Definition
%
Wind Dir Definition
10's deg

Wind Spd Definition
km/h
Visibility Definition
km
Stn Press Definition
kPa
Hmdx Definition


Wind Chill Definition


Weather Definition


TIME
00:00 Legend Double Dagger 2.7 1.7 93 16 4 16.1 98.60     LegendNANA
01:00 Legend Double Dagger 2.7 1.6 92 17 5 16.1 98.55     LegendNANA
02:00 Legend Double Dagger 2.0 1.3 95 19 4 11.3 98.52     LegendNANA
03:00 Legend Double Dagger 1.5 0.9 96 35 4 11.3 98.50     LegendNANA
04:00 Legend Double Dagger 0.8 0.4 97   0 6.4 98.44     LegendNANA
05:00 Legend Double Dagger 0.5 0.4 99   0 3.2 98.44     LegendNANA
06:00 Legend Double Dagger 0.5 0.4 99 LegendMM 4 3.6 98.44     LegendNANA
07:00 Legend Double Dagger 0.3 0.2 99 8 5 3.6 98.45     LegendNANA
08:00 Legend Double Dagger 1.1 0.7 97 6 4 4.8 98.49     LegendNANA
09:00 Legend Double Dagger 3.8 2.1 89 14 8 16.1 98.53     LegendNANA
10:00 Legend Double Dagger 6.5 3.0 78 12 9 16.1 98.47     LegendNANA
11:00 Legend Double Dagger 9.0 3.8 70 12 8 16.1 98.48     LegendNANA
12:00 Legend Double Dagger 10.2 3.8 65 LegendMM 4 16.1 98.42     LegendNANA
13:00 Legend Double Dagger 11.0 3.7 60 LegendMM 4 16.1 98.31     LegendNANA
14:00 Legend Double Dagger 11.4 4.1 61 11 11 16.1 98.24     LegendNANA
15:00 Legend Double Dagger 12.3 4.3 58 16 13 16.1 98.18     LegendNANA
16:00 Legend Double Dagger 12.0 4.2 59 19 11 16.1 98.18     LegendNANA
17:00 Legend Double Dagger 10.2 5.0 70 14 13 16.1 98.16     LegendNANA
18:00 Legend Double Dagger 7.4 4.0 79 13 11 16.1 98.16     LegendNANA
19:00 Legend Double Dagger 5.2 2.2 81 11 9 16.1 98.18     LegendNANA
20:00 Legend Double Dagger 4.5 2.0 84 11 9 16.1 98.15     LegendNANA
21:00 Legend Double Dagger 4.1 1.6 84 10 8 16.1 98.14     LegendNANA
22:00 Legend Double Dagger 3.1 1.7 90 12 4 12.9 98.07     LegendNANA
23:00 Legend Double Dagger 4.3 3.5 94 11 8 6.4 97.93     LegendNANA

Notes on Data Quality.

Legend

  • E = Estimated
  • M = Missing
  • NA = Not Available
  • ‡ = Partner data that is not subject to review by the National Climate Archives
Date modified: